Hourly Data Report for October 05, 2015

All times are specified in Local Standard Time (LST). Add 1 hour to adjust for Daylight Saving Time where and when it is observed.

RESOLUTE BAY A
NUNAVUT

74°43'01.000" N
94°58'10.000" W
67.70 m
2403498
71924
YRB

Download Data

Hourly Data (October 2015)
Hourly Data Report for October 5, 2015
Temp Definition
°C
Dew Point Temp Definition
°C
Rel Hum Definition
%
Wind Dir Definition
10's deg

Wind Spd Definition
km/h
Visibility Definition
km
Stn Press Definition
kPa
Hmdx Definition


Wind Chill Definition


Weather Definition


TIME
00:00 Legend Double Dagger -2.3 -2.7 97 21 30 8.1 99.90   -9 Snow
01:00 Legend Double Dagger -2.4 -3.0 96 21 33 8.1 99.85   -10 Snow,Blowing Snow
02:00 Legend Double Dagger -2.5 -3.1 96 20 30 8.1 99.82   -10 Snow,Blowing Snow
03:00 Legend Double Dagger -2.4 -3.1 95 19 36 8.1 99.77   -10 Snow,Blowing Snow
04:00 Legend Double Dagger -2.5 -3.1 96 18 30 11.3 99.73   -10 Blowing Snow
05:00 Legend Double Dagger -2.4 -3.1 95 17 33 8.1 99.64   -10 Blowing Snow
06:00 Legend Double Dagger -2.4 -3.0 96 17 36 4.0 99.54   -10 Snow Showers,Blowing Snow
07:00 Legend Double Dagger -2.8 -3.2 97 16 40 1.2 99.44   -11 Snow Showers,Blowing Snow
08:00 Legend Double Dagger -2.9 -3.5 96 15 45 1.2 99.33   -12 Snow
09:00 Legend Double Dagger -2.7 -3.1 97 14 35 0.8 99.22   -11 Snow
10:00 Legend Double Dagger -2.3 -2.7 97 17 39 0.8 99.13   -10 Snow
11:00 Legend Double Dagger -2.1 -2.5 97 16 32 0.8 99.03   -9 Snow
12:00 Legend Double Dagger -1.9 -2.2 98 18 26 1.2 98.93   -8 Snow
13:00 Legend Double Dagger -2.2 -2.6 97 30 24 1.2 98.91   -9 Snow
14:00 Legend Double Dagger -3.7 -4.5 94 32 32 4.8 98.96   -12 Snow
15:00 Legend Double Dagger -4.0 -5.0 93 31 27 24.1 99.02   -11 Cloudy
16:00 Legend Double Dagger -4.5 -7.0 83 29 24 24.1 99.08   -12 LegendNANA
17:00 Legend Double Dagger -5.7 -7.4 88 29 22 24.1 99.12   -13 LegendNANA
18:00 Legend Double Dagger -5.5 -7.2 88 27 30 24.1 99.14   -14 Cloudy
19:00 Legend Double Dagger -5.8 -8.2 83 26 27 24.1 99.15   -14 LegendNANA
20:00 Legend Double Dagger -5.8 -8.6 81 25 29 24.1 99.18   -14 Blowing Snow
21:00 Legend Double Dagger -6.2 -9.1 80 24 27 24.1 99.19   -14 Blowing Snow
22:00 Legend Double Dagger -6.3 -9.4 79 24 23 24.1 99.20   -14 Blowing Snow
23:00 Legend Double Dagger -6.0 -9.2 78 24 17 24.1 99.22   -12 LegendNANA

Notes on Data Quality.

Legend

  • E = Estimated
  • M = Missing
  • NA = Not Available
  • ‡ = Partner data that is not subject to review by the National Climate Archives
Date modified: